Вернуться в каталог

STARLINK-33875

АктивенСвязьVLEO
NORAD 63789·PAYLOAD·🇺🇸 United States

Запущен May 2, 2025 с Cape Canaveral Space Force Station

Loading…

Ближайшие Пролёты (ближайшие 24 часа)

TLE

СвежийSource: CelesTrak SupGP

Эпоха: Sep 15, 2026, 03:25 UTC

1 63789C 25091Q   26258.14284722 -.00031522  00000+0 -11418-2 0  2582
2 63789  43.0041  62.4246 0001632 269.2095 266.9128 15.27591380    12

Отслеживайте STARLINK-33875 в реальном времени с AllMySat

Download on the App Store